Simultaneous Nadir Overpasses (SNOs) Predictions

Prediction of SNOs between NOAA-19 and NPP Satellite Orbit:

Table of predicted SNOs for the next 14.0 days since TLE Epoch: 8/3/2018
Index Date (NOAA-19) Time (NOAA-19) Lat,Lon (NOAA-19) SZA (NOAA-19 ) Date (NPP) Time (NPP) Lat,Lon (NPP) SZA (NPP ) Distance(km) Time Diff (sec)
1 08/05/2018 16:18:56 80.49,-109.30 66.66 08/05/2018 16:20:00 80.48,-109.36 66.63 1.83 64
2 08/05/2018 17:09:52 -80.48, 57.77 113.32 08/05/2018 17:10:45 -80.48, 57.91 113.36 2.68 53
3 08/05/2018 18:00:57 80.49,-134.77 66.68 08/05/2018 18:01:30 80.48,-134.75 66.65 1.53 33
4 08/05/2018 18:51:52 -80.50, 32.64 113.33 08/05/2018 18:52:15 -80.48, 32.52 113.34 2.94 23
5 08/05/2018 19:42:58 80.49,-160.23 66.69 08/05/2018 19:43:00 80.48,-160.14 66.67 2.28 2
6 08/05/2018 20:33:53 -80.50, 7.18 113.32 08/05/2018 20:33:45 -80.48, 7.13 113.32 2.16 8
7 08/05/2018 21:24:59 80.49, 174.30 66.71 08/05/2018 21:24:31 80.50, 174.14 66.75 3.18 28
8 08/05/2018 22:15:54 -80.50, -18.29 113.30 08/05/2018 22:15:15 -80.48, -18.26 113.30 2.17 39
9 08/05/2018 23:07:00 80.50, 148.83 66.72 08/05/2018 23:06:01 80.50, 148.74 66.77 1.88 59




NCC Satellite Simultaneous Nadir Overpasses (SNOs) Prediction Service
